User: anonymous   Login
Location: Toronto
(43.6672°N, 79.4170°W)
Time: 12:02:04
(UTC-05:00)
Language:

ISS - Orbit

View from above orbital plane
View from above orbital plane
View from above satellite
View from above satellite

Ground track
Ground track

The orbit data is extracted from the following two-line orbital elements,

1 25544U 98067A   17020.52785645  .00016717  00000-0  10270-3 0  9021
2 25544  51.6433  54.4198 0007539 101.2260 258.9740 15.54104019 38782
Epoch (UTC): 20 January 2017 12:40:06
Eccentricity: 0.0007539
inclination: 51.6433°
perigee height: 399 km
apogee height: 410 km
right ascension of ascending node: 54.4198°
argument of perigee: 101.2260°
revolutions per day: 15.54104019
mean anomaly at epoch: 258.9740°
orbit number at epoch: 3878

The dashed part of the orbit path shows where the satellite is in the earth's shadow,  

DLR